Wind_Speed
9 10 10 12 14 14 15 14 14 13 15 16 17 18 18 18 18 18 17 16 15 13 12 13 14 14 14 14 15 16 17 17 16 16 17 17 18 18 18 18 17 16 15 15 15 16 16 15 15 14 13 12 11 10 10 9 9 9 9 9 9 9 9 9 10 10 10 11 11 11 11 12 12 12 12 11 10 9 9 9 9 9 9 9 10
8 9 11 13 14 13 14 14 13 13 13 15 17 18 18 18 18 18 18 17 15 13 12 12 13 13 13 14 15 15 16 16 16 16 16 17 18 19 19 18 17 16 15 15 15 15 16 16 15 15 14 14 13 11 10 10 9 9 9 9 10 10 10 10 10 10 11 11 12 12 12 12 13 13 13 13 13 12 11 11 11 10 10 10 10
7 9 11 12 13 12 13 14 13 12 12 14 16 17 18 18 18 18 18 17 16 14 13 13 13 13 13 13 14 15 15 15 15 15 16 17 18 19 19 19 18 17 16 15 15 15 15 16 15 15 15 15 14 13 11 10 10 10 10 10 10 11 11 11 11 11 11 11 12 12 12 13 13 13 14 14 14 14 14 13 13 12 12 11 11
7 9 11 11 11 11 12 14 13 13 12 13 15 17 17 18 17 17 17 18 17 15 14 14 13 13 12 13 13 14 14 14 14 14 15 16 18 19 20 20 19 18 17 15 15 15 15 15 15 15 15 15 15 14 13 11 11 11 11 11 11 12 12 12 12 12 12 12 12 12 12 13 13 14 14 14 14 15 15 15 14 13 13 12 12
8 10 11 10 9 10 11 13 13 13 13 14 15 16 17 17 17 17 17 18 18 17 16 15 14 13 13 12 12 13 14 14 13 13 14 15 17 19 20 20 20 19 18 16 15 15 15 15 15 15 15 15 15 14 13 12 12 12 12 12 12 12 12 12 12 13 13 13 13 13 13 13 13 13 14 14 14 15 15 16 15 15 14 14 13
8 10 10 9 8 9 10 12 13 13 14 15 15 16 17 17 18 18 18 18 19 19 18 16 14 14 13 13 12 12 13 13 13 13 13 14 16 17 19 20 20 19 18 17 16 15 14 14 14 14 15 14 14 14 14 13 13 12 12 12 12 12 12 12 12 13 13 13 13 13 13 13 13 13 13 13 13 14 15 16 15 15 15 15 15
9 9 8 7 7 8 10 11 13 13 14 15 16 17 17 18 18 18 18 18 19 19 19 17 16 15 14 13 12 12 12 13 13 12 12 13 15 16 17 19 19 19 18 17 16 15 14 14 14 14 14 14 14 14 14 13 13 13 13 13 13 13 13 13 13 13 13 13 13 13 13 13 13 13 14 14 14 14 15 16 15 15 15 15 15
9 9 7 7 6 8 10 11 13 13 14 15 16 17 18 18 18 18 18 19 19 20 20 19 17 16 15 13 12 12 12 12 13 12 12 12 13 14 16 17 18 18 18 17 16 15 14 14 14 14 14 14 14 13 13 13 13 13 13 13 13 13 13 13 13 14 14 13 13 13 13 13 13 14 14 15 14 14 15 16 16 16 15 15 16
8 8 7 7 7 8 10 12 13 13 13 15 16 17 18 18 18 18 18 19 19 20 20 20 19 17 15 14 13 12 11 12 12 12 12 12 12 13 14 15 16 17 17 17 17 16 15 14 14 13 13 13 13 13 13 13 14 14 14 14 14 14 14 14 14 14 14 14 14 14 14 14 14 14 15 15 15 15 15 15 16 16 17 16 16
6 7 7 7 7 9 10 12 13 14 14 15 17 18 18 18 18 18 18 18 19 20 20 20 20 18 16 14 13 12 11 11 11 12 11 11 11 11 12 13 14 16 16 16 16 16 15 14 14 13 13 13 13 13 13 13 13 13 14 14 15 15 15 15 15 15 15 15 15 15 15 15 15 15 16 16 16 16 16 16 16 16 17 18 18
6 7 8 8 8 9 11 12 13 14 14 15 17 19 19 19 18 18 17 18 18 19 20 20 20 18 16 14 13 12 11 10 10 11 11 11 10 10 11 12 13 14 14 15 16 16 15 15 14 14 13 13 13 13 13 13 12 13 13 13 14 14 15 15 15 15 15 15 15 15 15 15 15 16 16 17 17 17 17 18 18 17 18 18 18
6 7 8 9 10 10 11 12 13 14 15 16 18 20 20 20 18 18 17 17 18 19 19 20 20 19 17 15 13 12 11 10 10 10 10 10 10 10 11 11 12 12 13 13 14 15 15 15 15 14 14 13 13 13 13 13 13 13 13 13 13 13 14 14 14 14 14 14 15 15 15 16 16 16 16 17 17 18 19 19 19 19 19 19 19
7 8 10 10 11 11 12 13 15 16 17 18 19 20 21 20 19 18 17 17 18 18 19 19 19 19 18 16 14 12 11 10 10 10 10 11 11 10 10 11 11 11 11 12 12 13 14 14 15 15 14 14 13 13 13 13 13 13 13 13 12 13 13 13 13 14 14 14 14 15 15 16 16 17 17 17 18 18 19 19 19 20 20 20 20
9 10 11 12 12 13 13 15 17 18 19 19 20 21 21 21 19 18 18 17 17 18 18 19 19 19 18 16 14 12 11 10 10 10 11 11 11 11 10 10 10 10 11 11 11 12 12 13 14 14 14 14 14 14 13 13 13 13 13 13 12 12 12 12 12 13 13 14 14 15 15 15 16 17 17 17 18 18 19 19 19 20 20 20 20
14 15 15 15 15 14 15 17 19 20 21 21 22 22 22 21 19 19 18 18 18 17 18 18 19 18 17 16 14 12 11 10 9 9 10 11 11 11 10 10 10 10 10 10 10 10 11 12 13 14 14 14 14 14 13 13 13 13 13 12 12 13 12 12 12 12 12 13 14 15 15 15 16 16 17 17 18 18 19 20 20 21 21 21 21
20 21 20 20 20 19 18 19 21 22 23 23 23 24 24 22 20 19 18 18 18 17 17 18 18 18 17 16 14 12 11 10 9 9 10 11 11 11 10 10 10 10 10 10 10 10 10 11 12 13 13 13 13 13 13 13 13 13 13 12 12 12 13 13 12 12 12 13 13 14 15 16 16 16 17 18 18 19 19 20 21 22 22 22 22
24 24 23 23 23 23 23 22 22 24 25 25 25 26 25 23 21 19 19 19 19 18 17 17 18 17 17 16 14 13 11 10 9 9 10 10 10 10 10 10 10 10 10 10 10 10 10 10 11 12 13 13 13 12 12 12 13 13 13 12 11 11 12 13 13 14 13 13 14 15 15 16 16 17 17 18 19 19 19 20 21 22 22 23 23
26 27 26 26 25 25 25 23 23 25 26 27 27 27 27 24 22 21 20 20 19 19 18 17 17 17 17 16 14 13 11 10 9 9 9 10 10 10 10 10 10 10 10 10 10 10 10 10 10 12 13 13 13 12 11 11 11 12 12 12 12 11 11 12 14 15 15 15 15 15 16 16 17 17 18 18 19 19 19 20 20 21 22 23 24
28 28 29 28 27 27 26 24 25 26 27 28 28 29 28 25 23 22 21 21 20 19 18 17 17 17 17 16 14 13 11 10 9 9 9 9 9 9 10 10 10 10 10 10 10 10 10 10 10 11 12 13 13 12 12 11 11 11 12 12 12 11 11 12 13 15 16 17 16 16 17 17 17 17 18 18 19 20 20 21 21 22 23 24 25
30 30 30 30 30 29 27 26 26 27 28 28 29 30 29 26 24 24 22 21 20 20 19 17 17 17 17 17 15 13 12 11 10 10 10 10 9 10 10 10 10 10 10 10 10 10 10 10 11 11 12 13 13 13 12 11 11 11 11 11 11 11 11 12 13 14 16 17 17 18 18 18 18 18 19 20 20 20 21 22 22 23 24 25 25
32 32 32 32 32 31 31 29 29 29 29 29 30 30 29 27 25 24 23 22 21 20 19 17 16 17 18 17 15 14 12 12 11 10 10 10 9 10 10 9 10 10 10 10 10 11 11 10 11 12 13 14 14 13 12 11 11 10 10 10 10 10 11 12 12 13 15 16 17 18 19 20 20 20 21 21 21 21 22 22 23 23 24 26 26
34 34 34 34 34 33 33 31 31 31 31 31 30 29 28 26 25 25 23 22 21 20 19 17 16 17 18 17 15 14 13 13 12 11 10 10 10 10 10 9 10 10 10 10 10 11 11 10 11 12 13 14 14 13 12 12 11 11 11 11 10 10 11 11 12 13 14 16 17 19 20 21 21 22 22 22 22 22 22 23 23 24 25 26 26
35 35 36 36 35 34 33 32 32 32 33 32 30 28 26 25 25 25 23 22 20 19 19 17 16 17 18 17 16 14 13 13 12 11 10 10 10 10 10 10 10 10 10 10 10 11 11 10 11 11 12 13 14 14 13 12 12 11 11 11 11 11 11 11 12 13 14 16 17 18 19 20 21 21 22 22 23 23 23 23 24 25 26 26 25
36 37 38 37 36 35 34 33 33 34 34 32 29 26 25 24 24 24 22 21 20 19 18 16 16 17 18 17 16 15 14 14 12 11 11 10 10 10 10 10 10 10 10 10 10 10 10 10 11 11 12 13 14 14 13 12 11 11 11 11 12 12 12 13 13 14 15 16 17 17 18 19 20 21 22 23 23 23 23 24 25 26 27 28 26
37 37 38 37 36 36 35 35 35 35 33 31 27 26 25 24 24 24 22 20 19 18 17 15 16 17 18 17 16 15 14 13 12 11 11 10 10 10 10 10 11 11 10 10 10 10 10 10 10 11 12 13 14 14 13 12 11 11 11 11 11 12 12 13 14 15 16 17 17 18 19 19 20 21 22 22 22 22 23 23 24 25 27 29 29
37 37 38 38 38 38 37 37 35 34 32 29 26 25 25 24 24 22 21 20 19 17 16 15 17 18 18 17 16 15 14 13 12 11 10 10 11 11 11 11 11 11 11 11 11 10 9 10 10 11 12 13 14 14 13 11 10 10 10 10 11 11 12 13 14 15 16 17 18 19 20 20 20 20 20 21 21 21 22 22 24 25 26 28 29
38 38 39 40 40 39 37 35 33 32 30 28 26 25 25 24 23 21 21 20 19 17 15 15 17 18 18 18 17 15 14 13 12 11 11 11 12 11 11 11 12 11 12 12 11 10 9 10 10 11 12 13 13 13 12 11 11 10 10 10 11 11 12 13 14 15 16 18 19 19 20 21 21 21 21 21 21 22 22 23 24 25 27 28 28
39 40 41 41 40 37 34 31 30 29 28 26 25 25 25 23 21 21 21 20 19 17 16 16 17 18 18 18 16 14 13 13 12 11 12 12 13 12 12 12 12 12 12 12 11 10 9 10 11 11 12 12 13 12 11 11 11 10 10 10 11 12 12 13 15 16 17 18 19 20 21 22 22 22 22 22 23 23 23 24 25 26 28 28 28
39 38 38 37 35 32 28 27 27 27 27 26 25 25 25 23 21 22 22 21 19 17 16 17 17 17 18 17 16 14 14 14 12 12 13 14 14 13 12 12 12 13 13 12 11 10 10 11 11 12 12 12 12 11 11 10 10 10 10 11 11 12 13 14 16 17 18 20 21 21 22 22 23 24 24 24 24 25 25 25 26 26 28 29 28
36 34 33 32 30 27 25 24 25 27 27 26 25 25 24 23 22 22 22 22 20 18 18 18 17 17 17 16 15 15 15 14 13 13 14 15 14 13 13 13 13 13 13 11 10 9 10 11 12 12 12 11 11 10 10 10 10 10 10 11 12 13 14 15 17 18 19 20 21 22 23 23 24 25 25 26 26 26 27 27 27 27 28 29 29
32 31 29 28 27 26 23 23 24 25 25 25 24 24 23 23 22 22 23 23 21 19 19 19 17 17 16 16 16 16 16 14 14 15 16 15 14 14 14 14 13 13 11 10 9 9 9 10 11 12 11 10 10 10 9 9 10 10 11 12 13 14 15 16 18 19 20 21 23 24 25 25 25 26 26 27 27 27 28 28 28 28 28 29 29
28 27 26 25 25 25 23 22 23 24 24 23 22 22 23 23 22 23 23 23 22 20 20 19 18 17 16 15 16 17 16 15 15 16 16 15 14 14 14 14 13 12 10 8 8 8 9 10 11 11 11 10 9 9 10 10 10 11 12 13 14 15 16 18 19 21 22 23 24 25 26 26 27 27 27 27 27 28 28 28 28 29 29 29 29
24 23 22 23 24 24 23 22 23 24 23 21 20 21 22 21 22 23 23 24 23 21 21 20 18 16 15 16 16 16 16 16 16 16 15 13 13 14 15 14 13 11 9 8 7 8 9 9 11 11 11 10 10 10 10 11 11 12 13 14 15 17 18 19 20 22 23 24 25 26 26 27 28 28 28 28 28 28 28 28 28 28 29 29 29
20 21 21 21 23 22 22 23 24 25 23 20 19 19 20 20 21 22 23 24 23 22 22 21 18 17 16 16 16 15 15 16 17 16 14 13 14 15 15 15 13 10 8 7 7 8 9 10 12 12 11 11 11 11 11 12 13 14 15 16 17 18 19 20 22 23 24 25 26 27 28 29 29 29 29 29 29 28 28 28 28 28 29 29 29
19 20 19 18 19 19 19 21 24 25 23 20 20 19 19 19 20 22 23 24 23 22 23 22 19 17 16 16 15 14 15 17 17 15 13 13 14 15 15 13 11 9 7 7 7 8 9 11 13 13 12 11 12 13 13 14 15 16 17 18 19 20 20 21 23 24 24 25 26 28 29 29 29 29 29 29 29 29 28 28 28 29 29 29 30
18 18 18 16 17 18 18 20 22 23 21 20 21 21 20 20 20 21 23 24 23 22 24 23 20 18 16 16 14 14 16 18 17 14 13 14 14 14 13 11 8 7 6 7 7 8 10 12 13 13 13 12 13 13 15 16 17 18 19 20 21 21 21 22 23 24 25 26 27 28 28 28 28 29 29 29 29 29 30 30 30 30 30 30 30
16 17 18 18 18 19 21 22 21 21 20 20 21 22 22 21 21 21 24 26 24 22 24 24 21 18 16 15 14 15 17 18 16 14 14 14 13 12 10 9 7 6 6 6 7 8 10 12 14 14 14 13 14 15 16 18 19 20 20 21 22 22 23 23 24 25 26 27 26 27 27 28 28 29 29 30 30 31 31 31 31 31 31 31 31
16 17 19 20 20 21 23 23 21 19 19 19 21 22 22 22 21 22 24 26 24 22 23 24 21 18 17 16 15 17 19 18 16 14 14 13 11 10 9 8 7 6 6 7 7 9 11 13 14 14 14 15 15 16 18 19 20 20 20 22 23 24 24 24 24 25 25 25 25 26 27 28 28 29 30 30 30 30 31 31 31 31 31 30 30
17 18 20 20 19 19 21 22 22 21 21 21 22 22 22 23 22 22 23 23 23 23 23 24 22 19 17 16 17 18 19 18 16 15 14 12 10 9 9 8 7 7 7 7 8 10 11 13 14 14 15 16 17 18 19 20 20 21 21 23 24 25 25 24 24 23 23 23 23 25 26 27 28 29 29 30 30 30 30 30 30 30 30 30 30
17 19 20 20 19 19 21 23 24 23 22 22 23 22 23 23 23 23 23 23 24 24 24 25 23 20 18 17 18 19 19 18 17 16 14 13 12 11 11 9 8 9 9 8 9 10 12 13 14 14 15 17 19 20 20 20 20 21 23 24 25 25 24 23 21 19 20 21 23 24 25 26 27 29 30 30 31 31 31 31 30 30 30 29 30
18 19 20 20 20 21 22 23 24 24 22 23 24 23 22 22 23 24 24 25 25 25 25 25 23 20 18 18 20 20 19 19 17 16 14 14 14 14 13 11 10 10 10 9 9 10 12 13 14 15 16 18 19 20 21 21 21 22 24 25 25 25 23 20 18 17 18 20 22 24 25 26 27 29 30 31 31 31 31 30 30 29 29 29 29
19 19 20 21 21 21 23 23 24 23 22 24 26 23 20 21 23 23 24 25 25 25 25 24 22 21 20 20 21 20 20 19 17 15 15 15 15 15 14 13 12 12 10 9 9 10 12 13 14 15 18 19 20 20 20 21 23 25 26 25 24 23 21 18 17 18 19 20 22 24 25 26 27 28 28 29 29 30 30 30 29 29 28 28 28
19 20 20 21 21 23 23 24 24 22 22 25 25 23 20 22 23 22 22 25 25 25 24 24 23 22 21 21 21 21 20 18 16 15 15 15 16 15 14 12 12 11 10 9 9 10 12 12 14 16 18 19 19 20 20 22 24 26 27 26 25 23 21 20 19 19 21 22 24 25 26 26 26 27 27 28 29 29 29 30 29 29 29 29 28
20 20 20 21 23 25 26 26 26 24 24 25 24 23 23 24 23 21 22 24 24 25 25 25 25 23 22 23 22 21 19 17 16 15 15 15 16 15 13 12 11 11 10 9 9 10 11 13 15 17 18 18 18 20 21 23 24 25 26 26 25 25 24 23 23 23 24 25 26 26 26 26 27 28 28 29 29 29 29 29 30 30 30 30 29
20 21 21 22 23 24 26 26 25 24 25 25 24 23 23 23 23 23 24 24 25 26 28 27 25 23 23 23 21 20 18 16 15 15 15 15 15 14 12 12 12 11 10 9 9 10 11 14 16 17 16 17 18 20 21 23 24 24 24 24 24 24 25 26 26 26 26 26 26 26 26 27 28 29 29 29 29 29 29 29 29 30 30 30 30
22 23 22 22 22 21 23 25 24 24 24 25 25 24 23 23 24 25 25 25 26 28 28 27 24 23 22 21 20 19 17 16 15 15 16 16 15 13 12 12 12 10 10 10 10 10 13 15 16 16 16 16 18 19 21 22 23 23 23 23 22 23 24 26 27 28 28 27 25 24 24 26 27 28 29 29 30 29 29 29 29 29 29 30 30
25 24 22 22 23 21 22 23 23 22 23 24 25 24 23 23 24 26 24 25 27 27 26 25 22 21 20 19 19 19 17 16 16 16 17 16 14 12 12 12 11 10 10 10 10 12 14 15 15 15 16 16 17 19 20 21 22 22 22 22 22 22 23 25 26 28 29 29 27 25 24 25 26 27 28 29 30 30 29 29 29 29 28 29 29
25 24 23 22 22 22 22 23 23 22 22 24 24 23 24 23 23 24 24 26 28 27 26 24 23 22 20 19 20 18 17 16 17 17 17 15 13 12 12 11 10 10 10 10 11 13 15 15 15 15 15 16 17 19 20 21 21 21 21 21 21 22 23 24 25 27 28 29 28 27 26 26 26 27 28 28 28 28 28 29 29 29 28 28 29
26 25 23 22 22 22 23 25 25 24 24 25 24 24 25 25 22 23 24 26 27 27 27 25 24 23 21 21 21 18 17 17 17 17 16 15 13 12 12 11 10 9 10 11 12 14 15 15 15 15 15 16 18 19 20 21 22 21 21 20 21 22 23 23 25 26 26 27 27 27 27 27 27 27 28 29 29 28 28 28 29 29 29 29 29
27 25 23 22 22 22 24 27 26 25 24 24 24 24 25 25 23 23 24 25 25 26 26 24 23 22 22 23 21 18 17 17 17 17 16 14 13 13 12 10 9 9 10 11 13 14 15 15 15 15 16 17 18 20 21 22 22 22 21 21 22 23 23 24 25 26 27 28 27 27 27 27 27 27 28 29 30 30 29 29 29 29 29 29 29
27 25 24 23 23 25 28 28 24 22 21 22 23 23 24 25 23 23 23 23 23 24 24 23 21 21 22 21 19 18 17 17 17 16 15 14 14 13 11 10 9 10 11 12 13 14 14 14 15 15 16 17 19 20 21 22 22 22 22 22 23 24 24 25 27 28 29 29 29 29 28 28 28 28 28 28 29 29 30 30 30 29 29 29 29
Wind_Direction
18 10 5 1 358 0 1 358 360 5 12 14 15 16 17 16 14 14 13 9 4 360 2 12 12 8 7 11 15 15 16 14 14 14 16 19 20 19 17 15 14 12 12 12 13 13 14 15 16 13 11 9 9 6 5 4 360 355 351 348 343 339 335 332 330 326 324 322 321 321 320 320 320 320 320 319 317 313 309 304 300 294 288 282 277
14 5 360 357 354 357 360 360 1 6 14 16 17 17 18 18 16 15 14 11 5 0 1 9 9 5 4 7 11 12 14 13 12 13 14 18 20 20 20 19 16 15 14 14 13 12 13 13 14 11 9 8 8 8 9 8 4 357 351 347 343 338 334 331 328 325 323 321 320 319 319 319 319 320 320 319 318 317 315 312 309 306 302 297 292
3 359 354 353 351 353 358 2 3 6 13 14 15 16 17 17 17 15 13 11 6 3 2 6 6 2 1 3 6 8 11 11 12 12 13 16 19 21 22 22 20 18 17 15 13 12 11 11 11 9 8 7 7 7 8 8 4 357 350 346 341 337 334 332 328 325 322 320 319 319 318 318 318 318 318 318 318 319 318 315 314 313 310 307 303
344 349 348 347 347 351 359 4 5 6 8 10 11 12 13 14 15 14 12 10 8 6 3 3 3 360 358 359 1 3 7 9 11 11 12 15 18 21 22 23 22 20 18 15 14 11 10 9 9 7 6 6 6 6 6 4 0 355 349 345 341 338 335 332 329 326 323 321 320 320 319 318 318 319 319 318 318 319 318 316 315 314 313 311 309
336 342 341 340 343 348 359 4 6 5 3 4 6 7 8 9 11 13 10 8 7 7 4 2 1 358 356 355 356 358 3 6 9 10 10 13 17 20 22 23 23 21 18 15 12 10 8 7 6 6 5 5 5 4 3 2 358 354 350 347 344 341 337 334 330 327 326 324 323 321 320 319 319 319 318 318 319 320 318 316 315 314 314 314 314
342 340 334 333 339 346 354 359 3 3 360 359 360 1 3 5 6 9 8 6 6 6 4 3 1 357 353 351 350 353 357 3 7 8 8 11 15 19 21 22 22 22 19 15 12 9 7 5 4 4 4 3 2 2 1 359 357 354 351 349 346 343 340 337 334 331 330 328 327 325 322 321 320 318 317 318 321 322 319 316 315 314 314 315 315
347 340 329 330 335 341 347 350 357 360 357 354 354 356 358 1 1 4 5 4 4 4 3 4 3 357 351 347 346 348 352 358 4 6 6 9 13 17 20 21 22 21 20 17 13 10 7 4 3 2 1 1 0 359 357 356 355 352 350 349 347 345 341 339 337 335 333 332 331 329 326 324 323 321 320 321 323 324 321 318 316 314 314 315 315
349 344 330 329 333 338 340 340 348 354 354 349 347 348 352 356 358 1 2 2 2 2 2 4 4 358 350 344 342 343 347 353 360 3 3 6 10 13 17 19 20 21 20 19 15 11 8 4 1 0 359 358 358 356 353 352 351 350 349 348 346 344 342 341 340 338 336 335 334 332 330 329 328 327 326 326 326 325 321 319 317 316 316 316 315
349 351 342 331 328 329 331 332 337 345 348 344 341 341 344 349 354 356 359 360 359 360 360 2 3 358 349 343 340 338 341 348 355 0 0 1 4 8 13 16 17 19 19 19 17 13 9 6 2 359 357 356 354 352 350 349 349 349 348 347 345 344 342 342 341 340 339 337 336 335 334 333 333 333 332 330 328 326 323 320 319 318 318 318 318
338 342 341 334 327 323 324 325 329 337 342 340 336 335 336 341 348 352 355 356 356 357 358 360 1 357 350 343 338 334 336 341 349 357 358 357 358 2 8 11 13 16 17 17 16 14 11 7 3 359 356 354 352 351 349 347 347 347 346 346 345 344 344 343 344 342 340 339 338 338 337 337 336 336 335 332 330 328 326 323 321 321 320 320 320
324 327 330 331 328 326 325 325 327 332 337 336 332 329 329 334 342 348 350 350 351 354 356 357 358 356 351 345 337 331 330 333 341 351 354 353 352 354 1 6 8 10 13 14 15 13 12 9 5 0 356 353 351 350 348 347 345 344 344 345 346 345 345 345 345 344 342 341 340 340 338 337 337 336 335 333 331 329 327 325 324 324 323 322 321
316 326 327 330 330 330 328 328 328 330 333 332 329 325 324 327 335 341 345 345 346 350 352 354 355 354 351 345 336 327 324 325 333 344 349 350 348 349 353 359 1 3 6 9 11 11 11 9 6 2 358 354 352 350 348 346 344 342 341 343 345 345 345 345 345 345 344 342 341 341 340 338 337 335 334 333 331 329 327 326 325 325 324 323 321
302 319 324 324 325 327 327 327 326 328 331 329 325 321 319 322 327 334 339 339 340 345 348 350 352 351 349 344 334 324 320 320 326 338 344 346 345 346 347 350 353 355 357 0 5 8 8 7 5 2 358 355 353 350 347 345 344 342 340 341 343 344 344 345 345 344 344 343 342 341 340 338 336 335 335 334 333 331 329 327 327 325 324 323 321
286 301 310 313 316 321 321 320 319 322 326 325 321 316 315 316 320 327 332 333 335 339 343 346 349 349 347 341 332 322 317 316 321 332 341 343 342 342 342 342 343 346 348 351 356 1 4 5 3 360 357 355 352 350 347 345 344 343 342 341 341 342 342 343 344 344 343 342 342 341 340 339 338 337 336 335 334 333 332 330 329 328 326 324 322
274 281 289 295 303 310 312 311 310 313 316 318 315 311 310 310 314 321 325 327 329 332 337 342 345 346 343 338 329 320 314 312 316 328 338 340 338 338 337 335 335 337 339 341 346 351 357 0 0 358 356 353 351 349 346 344 344 344 344 343 342 341 341 343 345 346 345 344 343 342 341 340 339 338 336 336 335 335 334 333 332 331 330 327 324
272 274 278 283 288 295 300 301 303 304 305 308 309 307 305 305 309 315 317 319 321 324 330 338 341 341 338 333 325 317 311 309 314 324 333 336 333 333 332 330 328 329 331 332 337 342 347 352 355 356 355 353 350 348 345 344 343 343 344 344 344 343 341 342 344 346 346 345 344 342 340 339 338 337 336 334 334 334 334 334 333 332 331 329 326
276 277 279 281 284 287 290 295 298 298 298 300 303 303 302 302 305 308 309 311 313 316 323 332 336 335 333 328 321 314 309 307 312 320 327 329 327 328 327 325 324 323 324 324 329 333 337 343 348 351 352 352 350 347 344 343 342 341 341 341 342 342 341 340 341 342 343 344 344 342 340 339 338 337 335 334 333 333 334 334 334 332 330 328 326
279 280 281 282 284 286 288 291 295 294 294 295 297 299 298 298 301 301 301 303 305 309 317 326 330 329 327 323 317 311 307 303 308 314 319 321 321 322 321 320 319 318 318 318 321 325 329 334 340 344 347 348 348 346 344 342 341 340 339 337 337 338 340 339 339 339 341 342 343 342 340 339 338 337 336 335 334 335 335 335 334 333 330 327 325
277 280 282 283 285 287 288 291 295 295 295 294 294 296 294 293 294 294 294 297 299 304 312 320 323 323 321 318 313 308 303 299 303 308 311 313 315 315 315 315 315 315 314 313 314 319 324 327 331 336 341 344 345 345 344 343 341 340 338 335 332 333 335 338 338 337 339 341 341 341 339 338 336 336 336 336 337 337 336 335 334 332 330 327 325
276 279 281 284 286 288 290 293 296 296 295 295 293 292 289 288 288 288 289 292 295 300 306 313 317 317 316 314 309 303 298 295 298 302 305 308 310 310 312 314 314 312 310 308 310 314 319 321 325 330 335 341 343 344 343 341 340 338 336 332 329 328 330 333 335 335 336 336 337 336 335 335 335 335 336 337 337 336 335 333 332 330 328 325 323
275 278 280 283 286 288 290 293 295 295 295 294 291 288 285 285 285 284 285 287 291 296 301 307 311 312 311 309 304 298 294 293 294 298 301 304 305 307 311 313 311 308 305 304 306 309 313 316 319 325 332 336 338 339 339 338 337 335 332 330 327 325 326 328 330 330 330 331 331 331 331 332 334 335 335 334 333 332 330 328 326 325 322 321 319
274 277 280 282 285 286 289 290 291 292 292 292 289 285 284 284 282 280 281 283 287 291 295 300 304 306 305 304 299 293 292 290 291 294 297 300 301 303 308 310 307 303 300 300 303 306 308 311 316 322 328 329 331 333 333 334 335 334 332 331 330 327 325 322 323 323 324 325 326 327 329 330 332 332 332 330 329 327 325 322 320 318 316 316 314
273 276 279 281 283 285 287 287 288 288 289 289 285 283 283 281 278 276 277 279 281 285 289 293 297 299 299 298 293 288 289 289 289 291 293 295 295 298 305 305 304 300 297 299 301 302 304 309 314 318 321 322 325 328 330 333 335 336 335 334 333 330 325 320 319 319 320 322 324 325 326 327 328 328 328 327 326 324 322 319 317 314 313 311 311
272 275 277 279 281 284 285 285 285 285 285 284 280 280 280 276 273 272 272 273 274 278 282 287 291 292 293 292 287 284 284 286 288 289 288 289 290 295 300 301 300 297 295 297 298 297 301 306 310 311 313 317 322 325 328 332 335 337 337 335 333 330 327 324 323 324 324 325 325 325 325 325 326 327 326 326 325 323 321 317 314 313 311 310 312
270 272 275 278 280 282 283 284 284 282 280 278 276 277 276 271 268 267 267 267 270 274 279 283 286 288 288 286 282 279 281 284 286 285 284 285 287 291 295 298 296 294 294 295 293 293 296 299 302 304 309 316 320 322 327 332 335 336 335 333 331 330 329 329 329 328 328 327 326 326 326 327 327 327 326 325 323 321 318 315 313 311 312 312 312
269 271 274 277 279 281 282 282 281 277 274 273 273 274 272 268 266 265 264 265 269 273 276 278 282 284 284 281 277 277 280 282 281 280 280 281 282 286 291 294 292 293 294 291 287 287 290 293 295 299 307 313 316 321 327 330 332 333 333 331 331 331 332 333 332 331 330 329 328 328 328 327 326 325 323 321 319 318 316 315 313 312 313 311 313
269 271 274 277 279 280 280 279 276 271 269 270 271 272 270 268 268 268 264 264 267 270 271 274 279 282 280 277 276 278 280 279 278 277 276 276 279 284 288 289 290 292 290 284 280 281 286 290 292 296 303 309 314 322 328 330 330 333 334 333 335 335 336 336 335 333 331 329 328 327 325 323 323 323 321 319 317 317 317 317 316 315 315 314 317
269 272 275 277 278 278 277 274 268 264 263 265 268 270 270 269 271 268 262 262 265 267 269 271 277 279 277 275 276 279 279 276 275 274 274 275 278 282 285 287 289 288 284 279 276 280 287 289 290 294 300 307 315 323 328 330 332 335 336 336 338 338 337 337 335 333 331 328 326 323 322 320 320 320 320 319 318 317 317 318 317 316 316 316 319
270 272 274 275 275 274 273 268 261 259 259 262 266 268 269 270 270 265 261 262 265 267 267 270 276 276 274 275 278 277 274 272 273 274 275 276 278 282 286 289 287 284 281 277 276 282 288 289 289 293 300 308 316 324 328 331 333 335 336 337 338 337 337 335 333 330 327 324 322 321 320 319 318 319 320 319 318 317 317 318 317 317 316 316 318
271 271 272 272 271 271 268 261 256 256 258 260 263 267 267 267 267 263 262 263 264 266 266 270 274 273 273 276 277 274 271 271 273 275 277 277 280 285 290 288 284 281 279 275 277 282 285 286 288 293 300 309 318 323 327 330 332 333 334 335 335 334 333 332 329 326 323 321 319 319 319 318 319 319 318 317 316 315 315 316 316 317 316 316 317
268 268 268 268 268 268 263 253 251 254 256 259 262 264 264 266 266 263 262 262 263 264 264 269 272 270 272 274 273 270 270 272 274 276 277 278 283 289 288 283 280 279 275 270 274 279 281 285 288 294 301 309 318 322 323 325 328 330 331 330 329 329 329 327 325 322 320 318 317 317 317 318 318 318 317 316 314 314 313 314 315 316 316 316 317
267 267 266 265 266 265 259 249 248 252 254 255 259 261 263 267 266 262 260 260 263 263 262 267 269 268 271 271 269 269 271 274 275 275 276 280 286 289 285 280 278 279 273 266 271 276 279 283 288 295 301 307 315 318 319 322 325 326 325 325 325 325 324 322 320 318 317 316 316 316 317 318 318 318 317 315 314 314 313 313 313 315 315 316 316
264 264 262 260 259 259 255 249 250 253 253 253 255 259 262 265 263 260 258 259 262 262 261 265 267 267 268 267 268 270 273 276 275 273 275 281 288 287 284 283 281 281 276 267 270 274 276 284 291 296 302 307 313 315 319 323 323 323 322 322 322 321 320 318 317 316 315 315 315 316 318 318 318 317 316 315 315 314 314 313 313 314 315 315 316
258 257 256 254 252 251 250 249 252 255 253 250 251 253 257 261 260 257 256 257 260 260 261 264 266 265 264 264 266 270 273 274 272 273 278 285 288 287 289 291 288 282 276 272 273 277 285 294 297 299 303 309 314 316 320 322 322 321 320 320 320 319 319 317 316 315 315 316 317 318 319 318 318 317 316 316 316 316 315 314 314 314 314 315 315
255 254 255 253 248 246 246 247 251 253 251 248 247 249 254 257 256 254 254 256 258 258 260 264 264 263 263 262 263 267 269 270 270 275 283 286 285 288 293 297 291 277 270 272 276 284 293 298 300 302 305 310 314 317 320 321 320 319 318 319 318 317 317 316 315 315 315 317 319 320 319 319 318 318 318 319 319 318 317 316 315 314 313 314 315
255 254 254 253 246 240 242 246 250 251 248 246 247 249 252 252 251 253 254 255 255 254 257 262 262 260 260 258 258 263 266 267 270 277 282 281 282 287 294 297 287 269 264 268 276 287 294 297 300 303 304 308 312 315 318 318 318 317 317 316 315 315 316 315 314 314 316 318 320 320 319 319 319 320 320 320 319 319 318 317 315 314 313 314 315
252 251 250 251 248 241 241 246 250 248 245 245 246 248 249 246 245 247 251 252 251 249 253 258 259 257 255 254 255 260 264 266 270 274 275 275 280 286 288 287 280 268 267 270 277 287 293 298 301 301 303 307 310 313 315 315 315 314 314 314 313 313 314 313 314 315 317 320 322 321 320 320 321 321 321 320 320 319 318 317 315 314 313 313 313
247 248 248 249 248 245 243 244 246 245 244 246 247 247 247 245 243 242 247 253 251 246 248 253 253 251 250 250 254 259 262 266 268 270 271 273 279 283 276 273 274 270 267 270 277 285 292 297 298 299 303 307 310 311 312 313 313 312 313 312 311 312 312 314 316 318 320 322 323 322 321 321 322 321 320 320 320 320 319 318 316 315 314 314 313
245 248 249 249 247 246 243 240 240 242 243 246 247 247 246 246 243 240 244 252 249 240 242 247 247 246 246 247 252 257 261 265 266 267 270 273 272 270 267 268 270 267 263 267 276 286 292 294 295 298 303 308 309 311 311 312 312 313 313 311 310 311 312 315 318 321 323 323 323 322 321 321 321 320 320 321 321 321 320 319 318 317 317 316 315
246 249 251 251 248 245 241 238 238 239 241 243 245 244 243 240 236 234 240 245 239 232 236 243 243 243 244 245 249 254 258 260 262 264 269 269 262 258 260 266 269 264 258 262 276 287 292 293 295 299 304 307 309 311 311 311 312 312 311 310 310 310 312 316 320 324 324 323 322 322 321 321 320 319 320 320 321 320 319 318 318 318 318 318 317
247 249 252 253 250 246 244 241 239 238 238 240 240 239 237 234 231 228 232 237 231 228 235 241 243 242 241 242 246 251 253 255 258 261 266 265 260 255 255 260 266 262 256 260 274 286 291 292 296 301 304 305 307 309 310 311 310 309 308 308 309 311 314 318 322 326 326 323 323 322 320 319 319 318 319 319 319 319 318 318 318 319 319 319 318
246 249 253 255 254 250 246 245 242 238 237 239 238 237 235 233 232 227 227 232 228 227 234 239 241 239 238 240 244 248 250 251 255 259 263 263 259 256 254 259 263 260 255 260 275 286 289 293 299 303 304 305 307 310 311 312 312 310 309 310 312 314 317 320 323 326 326 325 324 323 321 320 320 320 320 321 321 320 319 320 320 320 320 319 318
246 251 254 256 256 251 246 243 240 235 234 238 237 237 237 233 235 233 227 228 227 229 235 238 237 235 234 238 243 246 247 249 254 259 262 260 258 256 255 258 259 254 253 261 274 282 286 294 302 303 304 307 309 312 313 314 314 313 314 316 318 319 319 320 322 325 328 329 329 327 324 323 322 323 324 325 324 323 322 321 321 321 320 319 318
245 250 253 255 255 250 243 238 237 233 230 234 233 232 234 234 237 238 227 223 225 229 233 234 233 232 232 237 241 244 247 250 255 260 261 259 256 252 250 254 254 251 253 263 272 278 286 296 300 301 303 307 309 312 313 314 314 315 318 320 322 322 322 322 324 328 331 333 332 329 326 325 325 327 327 326 325 323 322 322 322 322 321 320 319
244 247 250 255 255 247 240 235 234 234 232 232 232 229 230 233 236 233 223 220 223 227 231 232 232 231 232 237 241 244 246 250 257 262 260 256 251 245 245 250 250 251 258 267 274 282 292 297 297 298 300 304 308 311 312 313 314 317 320 321 321 321 321 321 323 327 330 331 330 328 327 327 327 327 327 327 325 324 323 323 323 323 322 320 319
242 245 247 253 255 246 239 236 232 233 233 234 235 232 229 231 232 227 220 218 221 226 230 233 234 234 235 237 240 242 246 253 259 260 256 252 245 239 242 247 247 253 264 272 281 290 296 296 295 296 298 303 308 311 312 313 316 319 321 321 319 319 319 321 323 325 327 328 327 327 326 325 325 327 328 328 327 326 326 326 326 325 323 322 320
241 244 246 252 255 249 243 238 231 231 234 234 237 236 231 230 229 225 219 219 224 228 232 235 236 235 235 238 240 242 247 255 257 255 253 247 238 236 241 244 246 257 268 277 288 295 296 295 294 295 299 305 309 311 312 314 317 320 321 319 318 317 318 320 322 324 325 325 325 324 322 322 323 325 327 328 328 329 329 328 327 326 324 323 322
241 243 245 250 255 253 249 240 231 232 235 233 236 238 232 227 224 221 219 221 225 229 232 234 234 233 233 237 241 243 248 254 254 253 248 238 232 236 241 242 248 260 271 281 291 295 295 294 295 298 304 309 312 312 313 315 317 319 318 316 316 317 318 319 320 322 323 323 322 321 321 322 323 326 328 329 329 329 329 328 327 326 325 324 323
241 242 244 248 252 253 252 245 232 230 231 229 232 233 226 222 222 222 222 224 226 229 231 231 232 233 233 236 239 242 248 253 253 248 239 230 230 236 238 241 251 262 274 285 292 294 294 294 297 302 309 313 314 314 315 317 318 317 316 316 316 317 317 316 317 318 319 320 320 321 322 323 325 328 330 330 330 330 329 328 327 326 325 324 323
241 242 243 246 249 248 247 243 233 227 226 226 229 227 220 221 226 228 229 231 230 230 231 231 232 233 234 237 239 242 249 250 245 238 231 228 230 232 234 241 253 265 277 286 291 291 293 296 300 306 312 315 316 316 318 319 318 317 316 316 316 316 315 315 315 317 320 321 322 323 323 324 326 329 331 331 330 329 328 327 326 325 325 325 324
240 240 240 243 245 242 240 237 232 230 229 227 228 227 222 225 229 230 233 235 233 232 233 232 232 232 235 239 242 243 244 241 237 234 229 226 227 228 233 242 254 267 278 285 289 290 293 298 303 309 314 316 316 318 321 321 320 318 317 316 316 317 317 317 319 321 322 323 323 323 324 324 326 327 329 329 328 327 326 325 325 325 326 326 326
Height
5898 5898 5898 5898 5897 5897 5896 5895 5895 5894 5893 5893 5892 5892 5891 5891 5890 5889 5888 5886 5885 5884 5884 5884 5883 5883 5883 5883 5882 5882 5881 5881 5880 5879 5878 5877 5876 5875 5874 5873 5872 5871 5870 5869 5868 5867 5867 5866 5865 5864 5863 5862 5862 5861 5860 5860 5859 5859 5858 5858 5857 5857 5856 5856 5856 5855 5854 5854 5853 5853 5852 5851 5851 5850 5849 5849 5848 5847 5847 5846 5846 5845 5845 5845 5844
5898 5898 5898 5898 5897 5896 5896 5896 5895 5894 5893 5893 5892 5892 5891 5891 5890 5889 5888 5887 5886 5885 5884 5884 5884 5883 5883 5883 5883 5882 5882 5881 5880 5880 5879 5878 5876 5875 5874 5873 5872 5871 5871 5870 5869 5868 5867 5866 5865 5864 5863 5863 5862 5861 5860 5860 5859 5859 5858 5858 5857 5857 5856 5856 5855 5855 5854 5854 5853 5853 5852 5851 5851 5850 5849 5849 5848 5847 5846 5846 5845 5845 5844 5844 5844
5897 5897 5897 5897 5897 5896 5896 5895 5895 5894 5893 5893 5892 5892 5891 5891 5890 5889 5888 5887 5886 5885 5885 5884 5884 5884 5884 5884 5883 5883 5882 5882 5881 5880 5879 5878 5877 5876 5875 5873 5872 5872 5871 5870 5869 5868 5867 5866 5866 5865 5864 5863 5862 5861 5860 5860 5859 5858 5858 5857 5857 5856 5856 5855 5855 5854 5854 5853 5853 5852 5852 5851 5850 5850 5849 5848 5848 5847 5846 5846 5845 5844 5844 5843 5843
5897 5897 5897 5897 5896 5896 5895 5895 5894 5894 5893 5893 5892 5892 5891 5891 5890 5890 5889 5888 5886 5885 5885 5885 5885 5884 5884 5884 5884 5883 5883 5882 5881 5880 5880 5879 5877 5876 5875 5874 5873 5872 5871 5870 5869 5868 5867 5867 5866 5865 5864 5863 5862 5861 5860 5860 5859 5858 5858 5857 5857 5856 5855 5855 5854 5854 5854 5853 5853 5852 5851 5851 5850 5850 5849 5848 5847 5847 5846 5845 5845 5844 5843 5843 5842
5896 5896 5896 5896 5896 5895 5895 5894 5894 5894 5893 5893 5892 5892 5891 5891 5891 5890 5889 5888 5887 5886 5885 5885 5885 5884 5884 5884 5884 5883 5883 5882 5881 5881 5880 5879 5878 5877 5875 5874 5873 5872 5871 5870 5869 5868 5868 5867 5866 5865 5864 5863 5862 5861 5861 5860 5859 5858 5858 5857 5856 5856 5855 5855 5854 5854 5853 5853 5852 5852 5851 5851 5850 5849 5849 5848 5847 5846 5846 5845 5844 5843 5843 5842 5841
5895 5895 5895 5895 5895 5894 5894 5894 5894 5894 5893 5893 5892 5892 5891 5891 5890 5890 5889 5888 5887 5886 5886 5885 5885 5885 5884 5884 5884 5884 5883 5882 5881 5881 5880 5879 5878 5877 5876 5875 5873 5872 5871 5870 5869 5869 5868 5867 5866 5865 5864 5864 5863 5862 5861 5860 5859 5858 5858 5857 5856 5856 5855 5854 5854 5853 5853 5852 5852 5851 5851 5850 5850 5849 5848 5848 5847 5846 5845 5845 5844 5843 5842 5841 5841
5894 5894 5894 5894 5894 5894 5893 5893 5894 5894 5893 5893 5892 5892 5891 5891 5890 5890 5889 5888 5887 5886 5886 5885 5885 5884 5884 5884 5884 5883 5883 5882 5881 5881 5880 5879 5878 5877 5876 5875 5874 5873 5872 5871 5870 5869 5868 5867 5866 5865 5864 5864 5863 5862 5861 5860 5859 5858 5857 5857 5856 5855 5855 5854 5854 5853 5852 5852 5851 5851 5851 5850 5849 5849 5848 5847 5846 5845 5845 5844 5843 5842 5841 5840 5840
5894 5894 5893 5893 5893 5893 5893 5893 5893 5893 5893 5893 5892 5891 5891 5891 5890 5889 5889 5888 5887 5887 5886 5885 5885 5884 5884 5884 5884 5883 5883 5882 5881 5881 5880 5879 5878 5877 5876 5875 5874 5873 5872 5871 5870 5869 5868 5867 5866 5865 5864 5864 5863 5862 5861 5859 5859 5858 5857 5857 5856 5855 5855 5854 5853 5853 5852 5852 5851 5851 5850 5849 5849 5848 5847 5847 5846 5845 5844 5843 5843 5842 5841 5840 5839
5893 5893 5893 5893 5893 5893 5893 5893 5893 5893 5893 5892 5892 5891 5891 5890 5890 5889 5889 5888 5887 5886 5886 5885 5884 5884 5884 5884 5883 5883 5883 5882 5881 5880 5880 5879 5878 5877 5877 5876 5875 5874 5873 5872 5870 5869 5868 5867 5866 5865 5864 5864 5863 5862 5861 5860 5859 5858 5857 5856 5856 5855 5855 5854 5853 5853 5852 5851 5851 5850 5849 5849 5848 5847 5847 5846 5845 5844 5843 5843 5842 5841 5840 5839 5838
5892 5892 5892 5892 5892 5892 5892 5892 5892 5893 5893 5892 5891 5891 5890 5890 5890 5889 5888 5887 5887 5886 5885 5884 5884 5884 5883 5883 5883 5882 5882 5882 5881 5880 5879 5879 5878 5877 5876 5876 5875 5874 5873 5872 5871 5870 5869 5868 5867 5865 5864 5863 5863 5862 5861 5860 5859 5858 5857 5856 5855 5855 5854 5853 5853 5852 5851 5851 5850 5849 5848 5848 5847 5846 5845 5845 5844 5843 5842 5842 5841 5840 5839 5838 5838
5892 5892 5892 5892 5892 5892 5892 5892 5892 5892 5892 5891 5891 5890 5890 5890 5889 5889 5888 5887 5886 5886 5885 5884 5883 5883 5883 5883 5882 5882 5882 5881 5880 5879 5879 5878 5877 5877 5876 5876 5875 5874 5874 5873 5871 5870 5869 5868 5867 5865 5864 5863 5862 5861 5860 5859 5858 5858 5857 5856 5855 5854 5854 5853 5852 5852 5851 5850 5849 5848 5847 5847 5846 5845 5844 5844 5843 5842 5841 5841 5840 5839 5838 5838 5837
5891 5891 5891 5891 5891 5891 5891 5891 5891 5891 5891 5891 5890 5890 5889 5889 5889 5888 5887 5886 5886 5886 5885 5884 5883 5883 5883 5882 5882 5881 5881 5880 5879 5879 5878 5878 5877 5877 5876 5876 5875 5874 5874 5873 5872 5871 5869 5868 5867 5865 5864 5863 5862 5861 5860 5859 5858 5857 5856 5855 5855 5854 5853 5852 5852 5851 5850 5849 5848 5848 5847 5846 5845 5844 5843 5843 5842 5841 5840 5839 5839 5838 5837 5836 5835
5891 5891 5891 5891 5891 5890 5890 5890 5890 5890 5890 5890 5890 5889 5889 5888 5888 5887 5887 5886 5885 5885 5884 5884 5883 5883 5882 5881 5881 5880 5880 5879 5879 5878 5878 5877 5877 5876 5876 5875 5875 5874 5873 5873 5872 5871 5869 5868 5867 5865 5864 5863 5862 5861 5860 5859 5858 5857 5856 5855 5854 5853 5852 5852 5851 5850 5849 5849 5848 5847 5846 5845 5844 5843 5843 5842 5841 5840 5839 5838 5837 5836 5835 5835 5834
5890 5890 5890 5890 5890 5890 5889 5889 5889 5889 5889 5889 5889 5888 5888 5888 5887 5887 5886 5885 5885 5884 5884 5883 5883 5882 5881 5881 5880 5879 5879 5878 5878 5878 5877 5877 5876 5876 5875 5875 5874 5874 5873 5872 5872 5871 5869 5868 5867 5865 5864 5863 5861 5860 5859 5858 5857 5856 5855 5854 5853 5852 5852 5851 5851 5850 5849 5848 5847 5846 5845 5845 5844 5843 5842 5841 5840 5839 5839 5838 5837 5836 5834 5833 5832
5889 5889 5889 5889 5889 5889 5889 5888 5888 5888 5888 5888 5888 5887 5887 5887 5886 5886 5885 5885 5884 5883 5883 5883 5882 5882 5881 5880 5879 5878 5878 5877 5877 5877 5877 5876 5876 5875 5874 5874 5873 5873 5872 5872 5871 5870 5869 5868 5867 5865 5864 5863 5861 5860 5859 5858 5857 5856 5855 5854 5852 5852 5851 5851 5850 5849 5849 5848 5847 5846 5845 5844 5843 5842 5841 5841 5840 5839 5838 5837 5836 5835 5834 5832 5831
5887 5887 5887 5888 5888 5888 5888 5887 5887 5887 5887 5887 5887 5886 5886 5885 5885 5885 5884 5884 5883 5882 5882 5882 5881 5881 5880 5879 5878 5877 5877 5877 5877 5877 5876 5876 5875 5874 5874 5873 5872 5872 5871 5871 5870 5870 5869 5868 5867 5865 5864 5863 5861 5860 5859 5857 5856 5855 5854 5853 5852 5851 5850 5849 5849 5849 5848 5847 5846 5845 5844 5843 5843 5842 5841 5840 5839 5838 5837 5836 5835 5834 5833 5832 5831
5884 5885 5885 5886 5886 5886 5886 5886 5886 5886 5886 5886 5886 5885 5885 5884 5884 5884 5883 5883 5882 5881 5881 5881 5880 5880 5878 5878 5877 5876 5876 5876 5876 5876 5875 5875 5874 5874 5873 5872 5872 5871 5870 5870 5869 5869 5868 5867 5866 5865 5864 5862 5861 5860 5858 5857 5856 5854 5853 5852 5852 5851 5850 5849 5848 5848 5847 5847 5846 5845 5844 5843 5842 5841 5840 5839 5838 5837 5836 5835 5834 5833 5832 5831 5830
5882 5882 5883 5884 5885 5885 5885 5885 5885 5885 5885 5885 5885 5884 5884 5883 5883 5882 5882 5881 5881 5880 5880 5880 5879 5878 5877 5876 5876 5875 5875 5875 5875 5874 5874 5874 5873 5873 5872 5871 5871 5870 5869 5869 5868 5868 5867 5866 5865 5864 5863 5862 5861 5859 5858 5857 5855 5854 5853 5852 5851 5850 5850 5849 5848 5847 5846 5845 5845 5844 5843 5842 5841 5840 5839 5839 5837 5836 5835 5834 5833 5832 5830 5829 5828
5880 5881 5882 5882 5883 5883 5883 5883 5883 5884 5884 5884 5884 5883 5882 5882 5882 5881 5880 5880 5879 5879 5879 5878 5878 5877 5876 5875 5875 5874 5874 5874 5873 5873 5873 5873 5872 5872 5871 5870 5870 5869 5869 5868 5867 5867 5866 5865 5864 5864 5862 5861 5860 5859 5857 5856 5855 5854 5853 5852 5851 5850 5849 5848 5847 5846 5845 5844 5844 5843 5842 5841 5840 5840 5839 5838 5837 5836 5834 5833 5832 5830 5829 5827 5826
5878 5879 5880 5881 5881 5881 5881 5882 5882 5882 5882 5882 5882 5881 5880 5880 5880 5879 5878 5878 5878 5878 5878 5877 5877 5876 5875 5874 5874 5873 5873 5872 5872 5872 5872 5872 5871 5871 5870 5869 5869 5868 5868 5867 5866 5866 5865 5864 5863 5863 5862 5861 5859 5858 5857 5856 5854 5853 5852 5851 5850 5849 5849 5848 5847 5846 5845 5844 5842 5842 5841 5840 5839 5839 5838 5837 5836 5835 5833 5832 5830 5829 5827 5826 5824
5876 5877 5878 5879 5879 5880 5880 5880 5880 5880 5880 5880 5880 5879 5878 5878 5878 5877 5877 5877 5877 5877 5876 5876 5876 5875 5874 5873 5872 5872 5871 5871 5871 5871 5871 5871 5870 5869 5869 5868 5868 5867 5867 5866 5865 5865 5864 5863 5863 5862 5861 5860 5858 5857 5856 5855 5854 5853 5852 5851 5850 5849 5848 5847 5846 5845 5844 5843 5841 5840 5839 5839 5838 5837 5837 5836 5835 5834 5832 5831 5829 5827 5826 5824 5822
5874 5875 5876 5877 5877 5878 5878 5878 5878 5878 5878 5878 5878 5877 5876 5876 5876 5875 5875 5875 5875 5875 5875 5874 5874 5874 5873 5872 5871 5870 5870 5870 5870 5870 5870 5869 5869 5868 5868 5867 5867 5866 5865 5865 5864 5864 5863 5862 5862 5861 5860 5859 5857 5856 5855 5854 5853 5852 5851 5851 5850 5849 5848 5847 5846 5845 5843 5842 5841 5840 5839 5838 5837 5836 5835 5834 5833 5832 5831 5829 5827 5826 5824 5822 5820
5872 5873 5874 5875 5875 5876 5876 5876 5876 5876 5876 5876 5875 5875 5874 5874 5873 5873 5873 5873 5873 5873 5873 5873 5872 5872 5871 5870 5870 5869 5869 5869 5869 5869 5869 5868 5868 5867 5866 5866 5866 5865 5864 5864 5863 5863 5862 5861 5861 5860 5859 5858 5856 5855 5854 5853 5852 5851 5850 5850 5849 5848 5847 5846 5845 5844 5843 5842 5840 5839 5838 5837 5836 5835 5834 5833 5832 5831 5829 5827 5826 5824 5822 5820 5818
5870 5871 5871 5872 5873 5873 5874 5874 5874 5874 5874 5873 5873 5873 5872 5871 5871 5870 5870 5870 5871 5871 5871 5871 5871 5870 5869 5869 5868 5868 5868 5867 5868 5868 5867 5867 5866 5866 5865 5865 5864 5864 5863 5863 5862 5862 5861 5860 5859 5858 5857 5856 5855 5854 5853 5852 5851 5850 5849 5848 5847 5846 5845 5844 5843 5843 5842 5840 5839 5838 5837 5836 5835 5834 5833 5831 5830 5829 5827 5825 5824 5822 5819 5817 5816
5868 5868 5869 5870 5871 5871 5872 5872 5872 5871 5871 5871 5871 5870 5869 5868 5868 5868 5868 5868 5868 5869 5869 5869 5869 5868 5868 5867 5867 5866 5866 5866 5866 5866 5866 5866 5865 5864 5864 5864 5863 5862 5862 5861 5861 5860 5860 5859 5858 5857 5856 5855 5854 5853 5852 5851 5850 5849 5848 5847 5846 5845 5844 5843 5842 5841 5840 5839 5837 5836 5835 5834 5833 5832 5831 5830 5829 5827 5826 5824 5822 5820 5818 5815 5813
5865 5866 5866 5868 5868 5868 5869 5869 5869 5868 5868 5868 5868 5868 5867 5866 5866 5866 5866 5866 5866 5867 5867 5868 5867 5866 5866 5866 5865 5865 5865 5865 5865 5865 5865 5864 5864 5863 5862 5862 5861 5861 5860 5860 5859 5859 5858 5857 5857 5856 5855 5854 5853 5852 5851 5850 5849 5848 5847 5846 5845 5844 5843 5842 5841 5839 5838 5837 5836 5834 5833 5833 5832 5831 5830 5828 5827 5825 5824 5822 5820 5818 5816 5813 5811
5862 5863 5864 5865 5865 5865 5866 5866 5865 5865 5866 5866 5866 5865 5865 5864 5865 5865 5864 5864 5864 5865 5865 5865 5865 5864 5864 5864 5864 5864 5864 5864 5864 5864 5863 5863 5862 5861 5861 5860 5860 5859 5858 5858 5857 5857 5856 5856 5856 5855 5854 5853 5852 5851 5850 5849 5848 5847 5846 5845 5844 5843 5842 5840 5839 5838 5837 5835 5834 5833 5832 5831 5829 5828 5827 5826 5825 5823 5822 5820 5818 5816 5813 5811 5810
5859 5860 5861 5862 5862 5862 5862 5862 5862 5862 5863 5863 5863 5863 5863 5863 5863 5863 5862 5862 5862 5863 5863 5863 5863 5862 5862 5862 5863 5863 5863 5862 5862 5862 5862 5861 5860 5860 5859 5859 5858 5857 5857 5856 5856 5855 5855 5855 5854 5853 5852 5851 5851 5850 5849 5848 5846 5845 5844 5843 5842 5841 5840 5839 5838 5837 5835 5834 5832 5831 5830 5828 5827 5826 5825 5824 5822 5821 5819 5818 5816 5814 5811 5809 5809
5856 5858 5858 5858 5858 5859 5859 5859 5859 5860 5860 5860 5860 5860 5861 5861 5861 5860 5859 5860 5860 5861 5861 5861 5861 5861 5861 5861 5861 5861 5861 5861 5861 5861 5860 5859 5859 5858 5858 5857 5856 5856 5855 5854 5854 5854 5854 5854 5853 5852 5851 5850 5849 5849 5848 5846 5845 5844 5843 5842 5841 5839 5838 5837 5836 5835 5834 5832 5831 5829 5828 5826 5825 5824 5823 5821 5820 5818 5817 5815 5814 5812 5809 5807 5806
5853 5855 5855 5855 5855 5856 5856 5856 5856 5857 5857 5857 5858 5858 5858 5858 5858 5858 5858 5858 5859 5859 5860 5859 5859 5859 5859 5859 5860 5860 5859 5859 5859 5859 5858 5858 5857 5857 5856 5856 5855 5854 5853 5853 5853 5853 5853 5853 5852 5851 5850 5849 5848 5847 5846 5845 5844 5843 5841 5840 5839 5838 5837 5836 5835 5834 5832 5831 5829 5828 5826 5825 5823 5822 5820 5819 5817 5816 5814 5813 5811 5809 5807 5805 5804
5851 5851 5852 5852 5852 5853 5853 5853 5853 5853 5854 5854 5855 5855 5856 5856 5856 5856 5856 5856 5857 5858 5858 5858 5858 5857 5858 5858 5858 5858 5858 5858 5858 5857 5857 5856 5856 5856 5855 5854 5853 5852 5852 5851 5852 5852 5852 5851 5851 5850 5849 5848 5847 5846 5845 5843 5842 5841 5840 5839 5838 5837 5836 5835 5834 5832 5831 5829 5827 5826 5824 5823 5821 5820 5818 5817 5815 5813 5812 5810 5809 5807 5805 5803 5801
5848 5848 5849 5850 5849 5850 5850 5850 5850 5850 5851 5851 5852 5853 5853 5853 5853 5853 5853 5854 5855 5856 5856 5856 5856 5856 5856 5856 5856 5856 5857 5857 5856 5856 5855 5855 5855 5854 5854 5853 5852 5851 5850 5850 5850 5850 5850 5850 5849 5849 5849 5848 5846 5845 5843 5842 5841 5840 5838 5837 5836 5835 5835 5833 5832 5831 5829 5827 5825 5824 5822 5820 5819 5817 5816 5814 5813 5811 5810 5808 5806 5805 5803 5801 5799
5845 5845 5846 5846 5846 5847 5847 5847 5848 5847 5848 5849 5850 5850 5850 5850 5851 5851 5851 5852 5853 5854 5854 5854 5854 5854 5855 5855 5855 5855 5855 5855 5855 5854 5854 5854 5853 5853 5852 5851 5850 5849 5848 5848 5848 5848 5848 5848 5848 5848 5847 5846 5845 5844 5842 5841 5840 5838 5837 5836 5835 5834 5833 5832 5830 5829 5827 5825 5823 5822 5820 5818 5816 5815 5813 5812 5811 5809 5808 5806 5804 5803 5801 5799 5797
5842 5842 5843 5843 5843 5844 5844 5845 5845 5845 5845 5846 5847 5847 5847 5847 5848 5848 5849 5849 5850 5852 5852 5853 5852 5853 5853 5852 5852 5853 5854 5853 5853 5853 5853 5852 5852 5851 5850 5849 5848 5847 5847 5847 5847 5847 5847 5847 5847 5847 5846 5845 5844 5843 5841 5840 5839 5838 5836 5835 5834 5833 5832 5830 5829 5827 5825 5823 5821 5820 5818 5816 5814 5812 5811 5809 5808 5807 5805 5804 5802 5800 5798 5797 5795
5840 5840 5840 5840 5840 5841 5841 5842 5842 5842 5843 5844 5844 5844 5844 5844 5845 5845 5846 5847 5848 5850 5851 5851 5851 5851 5851 5850 5850 5851 5851 5851 5851 5851 5851 5851 5850 5849 5849 5848 5847 5846 5846 5846 5846 5846 5846 5846 5846 5845 5845 5844 5843 5841 5840 5839 5838 5836 5835 5834 5833 5832 5830 5829 5827 5825 5823 5821 5819 5817 5815 5814 5812 5810 5808 5807 5805 5804 5803 5801 5800 5798 5796 5794 5792
5837 5837 5837 5837 5838 5838 5838 5839 5839 5839 5840 5841 5841 5841 5841 5841 5842 5843 5844 5845 5846 5848 5849 5849 5849 5849 5848 5848 5849 5849 5849 5849 5850 5850 5850 5849 5848 5848 5847 5847 5846 5845 5845 5845 5845 5845 5845 5845 5844 5844 5843 5842 5841 5840 5839 5838 5836 5835 5834 5833 5831 5830 5829 5827 5825 5823 5821 5819 5817 5815 5813 5811 5810 5808 5806 5804 5803 5801 5800 5799 5797 5795 5793 5792 5790
5835 5835 5835 5835 5835 5835 5835 5836 5836 5837 5838 5838 5838 5838 5838 5838 5839 5840 5841 5842 5844 5845 5846 5847 5847 5847 5846 5846 5847 5847 5847 5847 5848 5848 5848 5847 5846 5846 5846 5845 5845 5844 5844 5844 5844 5844 5844 5843 5843 5842 5842 5841 5840 5839 5838 5837 5835 5834 5833 5832 5830 5829 5828 5826 5824 5821 5819 5817 5815 5813 5811 5809 5808 5806 5804 5802 5801 5799 5798 5796 5795 5793 5791 5789 5787
5832 5832 5832 5832 5832 5832 5833 5833 5834 5835 5835 5835 5835 5835 5835 5835 5836 5838 5838 5839 5841 5843 5844 5845 5845 5845 5844 5845 5845 5845 5845 5846 5847 5846 5846 5845 5845 5844 5844 5844 5844 5843 5843 5843 5843 5843 5842 5842 5841 5841 5840 5840 5839 5838 5837 5835 5834 5833 5831 5830 5828 5827 5826 5824 5822 5820 5817 5815 5813 5811 5809 5807 5805 5804 5802 5800 5799 5797 5796 5794 5792 5790 5788 5786 5784
5829 5830 5829 5829 5829 5829 5830 5830 5831 5832 5832 5833 5833 5832 5832 5833 5834 5835 5836 5837 5838 5840 5841 5842 5843 5842 5843 5843 5843 5843 5843 5844 5845 5845 5844 5844 5843 5842 5842 5842 5842 5842 5842 5842 5842 5841 5841 5840 5840 5839 5839 5838 5837 5836 5835 5834 5832 5831 5830 5828 5826 5825 5824 5822 5820 5818 5816 5813 5811 5809 5808 5806 5804 5802 5800 5799 5797 5796 5794 5792 5790 5788 5786 5784 5782
5827 5827 5827 5827 5827 5827 5827 5827 5828 5828 5829 5830 5830 5829 5829 5830 5831 5832 5833 5834 5835 5837 5838 5839 5840 5840 5841 5841 5841 5841 5841 5842 5843 5843 5843 5842 5841 5841 5841 5841 5841 5841 5841 5841 5840 5840 5839 5839 5839 5838 5837 5837 5835 5834 5833 5832 5831 5829 5828 5826 5824 5823 5821 5820 5819 5817 5815 5812 5810 5808 5806 5804 5802 5800 5798 5797 5796 5794 5792 5790 5788 5786 5784 5782 5780
5824 5824 5824 5824 5824 5824 5824 5824 5825 5825 5826 5826 5826 5825 5826 5826 5827 5829 5830 5831 5833 5834 5835 5837 5838 5839 5839 5839 5838 5838 5839 5840 5841 5841 5841 5840 5840 5839 5839 5840 5839 5839 5839 5839 5839 5838 5838 5838 5837 5836 5836 5835 5834 5833 5831 5830 5829 5827 5826 5824 5822 5820 5819 5818 5817 5816 5814 5811 5809 5807 5805 5803 5801 5799 5797 5795 5794 5791 5789 5788 5786 5784 5782 5780 5777
5821 5821 5821 5821 5822 5822 5822 5822 5822 5822 5823 5822 5822 5822 5823 5824 5825 5826 5827 5829 5830 5832 5833 5834 5836 5836 5836 5836 5836 5837 5838 5839 5839 5839 5839 5838 5838 5838 5838 5838 5838 5838 5837 5837 5837 5837 5837 5836 5836 5835 5834 5833 5832 5831 5829 5828 5826 5824 5823 5821 5819 5817 5816 5816 5815 5814 5813 5810 5808 5805 5803 5800 5799 5797 5795 5793 5791 5789 5787 5785 5783 5781 5779 5777 5775
5819 5819 5819 5819 5819 5819 5819 5819 5819 5819 5819 5818 5819 5821 5822 5823 5824 5824 5825 5827 5828 5829 5831 5832 5833 5833 5833 5833 5834 5835 5836 5837 5837 5837 5837 5836 5836 5836 5836 5836 5836 5836 5836 5836 5836 5836 5835 5835 5834 5833 5832 5831 5830 5829 5827 5826 5824 5822 5819 5818 5816 5814 5813 5813 5813 5812 5811 5809 5806 5803 5800 5798 5796 5795 5793 5791 5789 5787 5785 5782 5780 5778 5777 5775 5773
5816 5816 5816 5816 5816 5814 5814 5814 5815 5815 5815 5816 5817 5819 5820 5821 5822 5823 5823 5824 5826 5827 5828 5829 5830 5830 5831 5831 5832 5834 5835 5836 5836 5835 5835 5834 5834 5834 5834 5835 5835 5834 5834 5834 5834 5834 5834 5833 5833 5832 5831 5829 5828 5827 5825 5824 5822 5820 5818 5815 5813 5811 5809 5809 5809 5808 5807 5805 5803 5801 5798 5796 5794 5792 5790 5789 5787 5784 5782 5780 5778 5776 5774 5772 5770
5813 5813 5814 5813 5812 5812 5811 5810 5810 5812 5812 5813 5814 5815 5816 5818 5819 5820 5820 5822 5823 5824 5825 5826 5827 5828 5828 5829 5831 5833 5834 5834 5834 5834 5833 5832 5832 5832 5832 5833 5833 5833 5832 5832 5832 5832 5832 5832 5831 5830 5829 5828 5827 5825 5824 5822 5820 5818 5816 5814 5812 5810 5808 5806 5805 5804 5804 5803 5801 5799 5796 5794 5792 5790 5788 5786 5784 5782 5780 5778 5776 5774 5771 5769 5767
5810 5810 5811 5811 5810 5809 5810 5809 5807 5809 5810 5811 5811 5812 5813 5814 5815 5816 5817 5819 5820 5821 5823 5824 5825 5826 5827 5828 5830 5831 5832 5832 5832 5832 5831 5830 5830 5830 5831 5831 5831 5831 5831 5831 5831 5831 5831 5830 5830 5829 5828 5826 5825 5824 5822 5820 5819 5816 5814 5812 5811 5809 5807 5805 5803 5801 5801 5800 5799 5798 5795 5793 5791 5788 5786 5784 5782 5780 5778 5776 5774 5772 5769 5767 5765
5807 5808 5809 5809 5807 5807 5808 5808 5807 5808 5809 5809 5808 5808 5809 5810 5811 5812 5814 5816 5818 5820 5821 5823 5824 5825 5826 5827 5828 5829 5830 5830 5830 5829 5828 5828 5828 5829 5829 5829 5830 5830 5829 5829 5829 5829 5829 5829 5828 5827 5826 5825 5824 5822 5821 5819 5817 5815 5813 5812 5810 5808 5806 5805 5802 5800 5798 5797 5797 5796 5794 5793 5790 5788 5785 5783 5780 5778 5775 5773 5771 5769 5767 5765 5762
5804 5805 5806 5807 5806 5805 5805 5805 5806 5807 5807 5806 5806 5806 5807 5807 5808 5810 5812 5814 5816 5818 5820 5821 5822 5823 5824 5825 5825 5827 5828 5828 5827 5827 5826 5826 5827 5827 5827 5828 5828 5828 5828 5828 5828 5828 5827 5827 5826 5825 5824 5823 5822 5820 5819 5817 5815 5814 5812 5811 5809 5807 5805 5804 5802 5800 5798 5796 5794 5793 5792 5790 5789 5786 5784 5781 5779 5776 5774 5771 5769 5767 5765 5763 5760
5801 5803 5804 5805 5805 5804 5802 5801 5802 5803 5803 5803 5804 5804 5805 5806 5807 5809 5811 5812 5813 5815 5817 5818 5819 5820 5822 5823 5823 5825 5825 5825 5825 5824 5824 5825 5825 5825 5826 5826 5826 5826 5826 5826 5826 5826 5826 5825 5824 5823 5822 5821 5820 5818 5816 5815 5813 5812 5811 5809 5808 5806 5804 5803 5801 5799 5797 5795 5793 5791 5790 5788 5786 5784 5781 5778 5776 5774 5771 5769 5767 5765 5763 5760 5758
5799 5800 5802 5802 5803 5802 5799 5797 5798 5799 5801 5801 5801 5802 5804 5806 5807 5808 5809 5810 5811 5812 5814 5815 5816 5818 5819 5820 5821 5823 5823 5823 5822 5822 5823 5823 5823 5823 5824 5825 5825 5825 5825 5825 5825 5824 5824 5823 5822 5821 5820 5819 5818 5816 5815 5813 5812 5810 5809 5807 5806 5804 5802 5801 5799 5797 5795 5793 5791 5790 5788 5786 5784 5782 5780 5776 5774 5771 5769 5767 5765 5762 5760 5758 5756
5796 5798 5799 5800 5800 5797 5794 5796 5798 5799 5801 5801 5800 5801 5803 5805 5805 5806 5807 5808 5809 5810 5812 5813 5814 5816 5817 5818 5820 5821 5820 5820 5821 5821 5822 5822 5822 5822 5823 5823 5823 5824 5824 5824 5823 5823 5822 5821 5820 5819 5818 5817 5816 5815 5813 5811 5810 5808 5807 5805 5803 5802 5800 5798 5796 5794 5792 5791 5789 5787 5785 5784 5781 5780 5778 5775 5772 5770 5767 5764 5762 5760 5758 5755 5753